TimeEDT,TemperatureF,Dew PointF,Humidity,Sea Level PressureIn,VisibilityMPH,Wind Direction,Wind SpeedMPH,Gust SpeedMPH,PrecipitationIn,Events,Conditions,WindDirDegrees,DateUTC
12:03 AM,48.2,46.4,93,29.84,1.0,Calm,Calm,-,N/A,,Overcast,0,2013-03-19 04:03:00
12:33 AM,46.4,46.4,100,29.83,0.5,SW,3.5,-,0.00,Fog,Fog,230,2013-03-19 04:33:00
12:54 AM,46.9,46.0,97,29.82,0.5,WSW,3.5,-,0.00,Fog,Fog,240,2013-03-19 04:54:00
1:54 AM,46.0,45.0,96,29.82,0.5,Calm,Calm,-,0.01,Fog-Rain,Light Rain,0,2013-03-19 05:54:00
2:16 AM,44.6,44.6,100,29.82,1.2,WNW,5.8,-,0.00,Rain,Light Rain,290,2013-03-19 06:16:00
2:22 AM,44.6,44.6,100,29.83,3.0,West,6.9,-,0.00,Rain,Light Rain,270,2013-03-19 06:22:00
2:54 AM,44.1,43.0,96,29.81,5.0,West,6.9,-,0.04,Rain,Rain,280,2013-03-19 06:54:00
3:54 AM,43.0,42.1,97,29.80,7.0,West,3.5,-,0.03,Rain,Light Rain,260,2013-03-19 07:54:00
4:04 AM,42.8,41.0,93,29.80,10.0,West,3.5,-,0.00,Rain,Light Rain,270,2013-03-19 08:04:00
4:54 AM,42.1,41.0,96,29.79,8.0,West,3.5,-,0.01,Rain,Light Rain,260,2013-03-19 08:54:00
5:54 AM,42.1,39.9,92,29.78,9.0,SW,5.8,-,0.01,,Overcast,230,2013-03-19 09:54:00
6:54 AM,42.1,41.0,96,29.76,8.0,SW,3.5,-,N/A,,Overcast,230,2013-03-19 10:54:00
7:54 AM,43.0,41.0,93,29.76,7.0,WSW,3.5,-,N/A,,Overcast,240,2013-03-19 11:54:00
8:03 AM,42.8,41.0,93,29.76,7.0,SW,4.6,-,N/A,,Overcast,230,2013-03-19 12:03:00
8:54 AM,43.0,39.9,89,29.77,8.0,WNW,8.1,-,N/A,,Overcast,290,2013-03-19 12:54:00
9:54 AM,42.1,37.9,85,29.81,7.0,WNW,12.7,20.7,N/A,,Overcast,290,2013-03-19 13:54:00
10:03 AM,42.8,37.4,81,29.80,7.0,WNW,9.2,18.4,N/A,,Overcast,290,2013-03-19 14:03:00
10:54 AM,43.0,39.0,86,29.78,8.0,West,6.9,-,N/A,,Overcast,270,2013-03-19 14:54:00
11:54 AM,46.0,39.0,76,29.79,10.0,NNW,8.1,-,N/A,,Overcast,330,2013-03-19 15:54:00
12:02 PM,46.4,39.2,76,29.78,10.0,NW,8.1,18.4,N/A,,Overcast,320,2013-03-19 16:02:00
12:37 PM,46.4,37.4,71,29.79,9.0,NNW,10.4,20.7,N/A,,Mostly Cloudy,330,2013-03-19 16:37:00
12:54 PM,48.9,39.0,69,29.79,9.0,NW,10.4,-,N/A,,Partly Cloudy,310,2013-03-19 16:54:00
1:54 PM,53.1,37.9,57,29.75,10.0,North,8.1,-,N/A,,Partly Cloudy,360,2013-03-19 17:54:00
2:54 PM,55.0,36.0,49,29.74,10.0,West,9.2,-,N/A,,Partly Cloudy,280,2013-03-19 18:54:00
3:54 PM,57.0,34.0,42,29.74,10.0,WNW,13.8,18.4,N/A,,Partly Cloudy,300,2013-03-19 19:54:00
4:54 PM,55.9,35.1,45,29.74,10.0,SW,10.4,-,N/A,,Partly Cloudy,230,2013-03-19 20:54:00
5:54 PM,55.9,36.0,47,29.75,10.0,WNW,8.1,-,N/A,,Partly Cloudy,290,2013-03-19 21:54:00
6:54 PM,53.1,39.9,61,29.76,10.0,WSW,6.9,-,N/A,,Clear,240,2013-03-19 22:54:00
7:54 PM,48.9,36.0,61,29.80,10.0,North,3.5,-,N/A,,Mostly Cloudy,350,2013-03-19 23:54:00
8:54 PM,46.0,37.0,71,29.81,10.0,Calm,Calm,-,N/A,,Scattered Clouds,0,2013-03-20 00:54:00
9:54 PM,43.0,36.0,76,29.84,10.0,Calm,Calm,-,N/A,,Clear,0,2013-03-20 01:54:00
10:54 PM,42.1,36.0,79,29.86,10.0,Calm,Calm,-,N/A,,Clear,0,2013-03-20 02:54:00
11:54 PM,42.1,30.0,62,29.88,10.0,Calm,Calm,-,N/A,,Clear,0,2013-03-20 03:54:00